Regional Weather Roundup
Issued by NWS Upton, NY

Current Version | Previous Version | Graphics & Text | Print | Product List | Glossary Off
Versions: 1 2 3 4 5 6 7 8 9 10 11 12 13 14 15 16 17 18 19 20 21 22 23 24 25 26 27

000
ASUS41 KOKX 220505
RWROKX

REGIONAL WEATHER ROUNDUP
NATIONAL WEATHER SERVICE NEW YORK NY
100 AM EDT TUE APR 22 2014

NOTE: "FAIR" INDICATES FEW OR NO CLOUDS BELOW 12,000 FEET WITH NO
SIGNIFICANT WEATHER AND/OR OBSTRUCTIONS TO VISIBILITY.

NYZ071-072-176-178-NJZ106-104-220600-
NEW YORK CITY METRO AREA


CITY           SKY/WX    TMP DP  RH WIND       PRES   REMARKS
CENTRAL PARK   CLEAR     53  41  63 CALM      29.89F
LAGUARDIA APRT MOCLDY    51  40  65 S6        29.87F
KENNEDY INTL   MOCLDY    48  43  82 S6        29.89F
NEWARK/LIBERTY MOCLDY    51  43  74 S3        29.87F
TETERBORO      CLEAR     52  41  66 S3        29.86F
$$

NYZ177-179-078>081-220600-
LONG ISLAND NEW YORK

CITY           SKY/WX    TMP DP  RH WIND       PRES   REMARKS
FARMINGDALE    CLEAR     46  42  86 SW3       29.89F
ISLIP          CLEAR     48  42  80 SW6       29.87F
SHIRLEY        CLEAR     47  43  86 S5        29.89F
WESTHAMPTON    CLEAR     36  32  85 CALM      29.89F
MONTAUK POINT    N/A     48  43  82 CALM      29.89F
$$

NYZ052-065-067-220600-
HUDSON VALLEY

CITY           SKY/WX    TMP DP  RH WIND       PRES   REMARKS
WHITE PLAINS   CLEAR     45  39  79 CALM      29.86F
NEWBURGH       CLEAR     52  39  62 CALM      29.84F
MONTGOMERY     PTCLDY    47  38  71 CALM      29.82F
POUGHKEEPSIE   PTCLDY    52  39  61 SE6       29.83F
ALBANY         CLOUDY    60  25  26 S13       29.78F
$$

NJZ001-105-106-008-010-013-015-019>022-104-220600-
NEW JERSEY

CITY           SKY/WX    TMP DP  RH WIND       PRES   REMARKS
NEWARK/LIBERTY MOCLDY    51  43  74 S3        29.87F
TETERBORO      CLEAR     52  41  66 S3        29.86F
CALDWELL       PTCLDY    48  41  76 CALM      29.87F
MORRISTOWN     PTCLDY    45  41  87 CALM      29.87F
SOMERVILLE     PTCLDY    46  41  82 CALM      29.85F
LINDEN         FAIR      52  43  72 CALM      29.89F
SUSSEX         MOCLDY    47  35  63 CALM      29.84F
ANDOVER          N/A     47  37  68 CALM      29.85F
TRENTON        PTCLDY    49  42  77 S6        29.87F
MILLVILLE      CLEAR     41  40  96 CALM      29.89F
ATLANTIC CITY  CLEAR     46  42  86 CALM      29.89F
WRIGHTSTOWN    CLEAR     45  42  89 S6        29.87F
TOMS RIVER     CLEAR     39  34  81 CALM      29.89F
BELMAR         CLEAR     46  37  71 SW6       29.88F
$$

PAZ047>061-062-071-220600-
EASTERN PENNSYLVANIA

CITY           SKY/WX    TMP DP  RH WIND       PRES   REMARKS
PHILADELPHIA   PTCLDY    52  44  74 S8        29.89F
ALLENTOWN      MOCLDY    48  31  51 CALM      29.85F
SCRANTON       CLOUDY    56  22  26 VRB5      29.81F
$$

CTZ002-004>006-009-010-012-RIZ004-006-007-MAZ004-011-015-220600-
SOUTHERN NEW ENGLAND
 IN CT

CITY           SKY/WX    TMP DP  RH WIND       PRES   REMARKS
BRADLEY INTL   PTCLDY    48  39  71 S8        29.84F
HARTFORD       CLEAR     48  40  73 S6        29.85F
DANBURY        CLEAR     47  39  74 CALM      29.87F
WTRBRY/OXFORD  CLEAR     46  37  71 SW3       29.88F
BRIDGEPORT     CLEAR     49  42  77 SW7       29.87F
MERIDEN        CLEAR     45  39  79 S3        29.87F
NEW HAVEN      CLEAR     45  40  82 S3        29.87F
CHESTER        FAIR      46  39  76 S5        29.87F
GROTON         CLEAR     43  41  93 CALM      29.88F
WILLIMANTIC    CLEAR     44  38  79 CALM      29.87F

 IN RI

CITY           SKY/WX    TMP DP  RH WIND       PRES   REMARKS
PROVIDENCE     CLEAR     44  38  79 S3        29.87F
BLOCK ISLAND   CLEAR     46  39  76 SW10      29.88F
WESTERLY       CLEAR     45  42  89 CALM      29.89F

 IN MA

CITY           SKY/WX    TMP DP  RH WIND       PRES   REMARKS
BOSTON         CLEAR     50  38  63 SW13      29.83F
WORCESTER      CLEAR     49  36  61 SW13      29.82F
WESTFIELD      PTCLDY    49  37  63 S5        29.83F
PROVINCETOWN   CLEAR     45  41  87 MISG      29.87F
NANTUCKET      PTCLDY    46  42  86 SW3       29.88F
$$

ANZ330-335-338-340-345-350-353-355-220600-
COASTAL MARINE OBSERVATIONS


STATION/POSITION TIME  SKY/WX   TEMP    WIND        PRES    VSBY  WAVE
                                AIR SEA DIR/SP/G                  HT/PER
                 (UTC)          (F)     (DEG/KT/KT) (MB)    (MI)  (FT/S)
NY HARB ENTRANCE 0500            46 45  VRB  8/  8  1011.7
4S FIRE IS       0400               46                N/A           4/ 8
23SW MTP         0500            45 43  220/  4/  6 1011.6          4/ 8
HUDSON CANYON    0400            46 45  100/  4/  4 1012.7          5/10
EXECUTION ROCKS  0500            48 46  190/  6/  6   N/A
WESTERN LI SOUND 0500            49     260/  2/  2   N/A           0
CENTRAL LI SOUND 0400            45 44  210/  2/  4   N/A           0
EASTERN LI SOUND NOT AVBL
ROBBINS REEF     0500            49     160/  6/  6   N/A
$$


>>>>>>>>>>>>>>>>>>>>>>>>>>>> KEY <<<<<<<<<<<<<<<<<<<<<<<<<<<
>                                                          <
>     SKY/WX - SKY CONDITION/PRESENT WEATHER               <
>     TMP    - TEMPERATURE IN FAHRENHEIT                   <
>     DP     - DEWPOINT IN FAHRENHEIT                      <
>     RH     - RELATIVE HUMIDITY IN PERCENT                <
>     WIND   - DIRECTION AND SPEED IN MPH                  <
>     PRES   - MEAN SEA LEVEL PRESSURE IN INCHES OF HG     <
>     WCI    - WIND CHILL INDEX                            <
>     VSB    - VISIBILITY IN MILES                         <
>     HX     - HEAT INDEX                                  <
>     TC     - TEMPERATURE IN CELSIUS                      <
>     VRB    - VARIABLE WIND DIRECTION                     <
>                                                          <
>>>>>>>>>>>>>>>>>>>>>>>>>>>> KEY <<<<<<<<<<<<<<<<<<<<<<<<<<<





USA.gov is the U.S. government's official web portal to all federal, state and local government web resources and services.